User: anonymous
Location: Sherrills_Ford_Terrell
(35.6000°N, 80.9830°W)
Time: 07:15:58
(UTC-04:00)
Language:

CZ-4B R/B - Orbit

View from above orbital plane
View from above orbital plane
View from above satellite
View from above satellite

Ground track
Ground track

The orbit data is extracted from the following two-line orbital elements,

1 29093U 06015B   14243.42893184  .00006326  00000-0  22869-3 0  3786
2 29093 097.5168 323.2107 0089412 357.6028 131.0564 15.25050018461046
Epoch (UTC): 31 August 2014 10:17:39
Eccentricity: 0.0089412
inclination: 97.5168°
perigee height: 429 km
apogee height: 552 km
right ascension of ascending node: 323.2107°
argument of perigee: 357.6028°
revolutions per day: 15.25050018
mean anomaly at epoch: 131.0564°
orbit number at epoch: 46104

The dashed part of the orbit path shows where the satellite is in the earth's shadow,  

DLR